RH
82 97 96 85 78 72 70 69 68 60 48 57 59 57 50 42 40 36 33 31 28 29 27 26 27 30 28 25 42 72 80 86 85 83 84 92 93 87 91 87 83 83 77 81
96 96 77 68 65 74 82 85 76 59 48 58 59 61 49 40 36 31 30 28 29 28 26 24 25 33 36 27 31 63 75 86 83 78 76 75 80 83 77 90 87 83 80 87
91 72 64 80 73 81 80 86 78 73 54 55 59 65 54 38 33 29 28 26 24 25 26 22 22 32 34 32 36 60 68 88 81 77 84 78 80 85 87 96 93 88 81 84
84 66 85 88 92 81 93 69 67 70 77 93 58 86 55 42 39 33 29 28 26 24 23 23 24 36 33 39 46 48 62 85 82 82 86 86 86 88 83 80 87 86 86 84
71 69 65 84 77 77 86 66 78 81 80 82 76 90 60 38 41 36 31 29 29 28 22 23 21 35 60 64 68 67 63 78 80 86 83 87 87 87 86 82 88 89 90 86
72 49 57 62 60 80 79 92 92 78 85 99 84 86 70 49 44 37 36 52 55 54 49 50 49 54 60 64 69 68 66 63 63 78 84 80 84 91 94 96 96 95 91 90
74 74 58 55 70 60 88 98 99 99 99 99 82 82 64 48 39 39 50 58 56 51 49 50 50 52 57 59 60 53 54 57 65 64 72 84 84 87 88 93 95 95 95 94
98 92 66 55 70 72 79 90 97 98 99 92 66 98 80 47 41 48 50 45 43 44 43 51 51 54 57 57 60 60 59 62 63 70 89 93 86 82 87 94 91 94 94 91
98 96 96 96 89 84 78 95 82 98 94 99 96 81 56 46 58 53 47 42 42 42 42 45 48 52 53 56 60 61 60 62 65 70 75 89 93 96 96 94 97 94 92 92
99 98 100 95 88 91 98 95 100 99 98 98 98 77 92 69 64 62 69 69 66 60 57 56 53 52 53 60 60 60 59 61 58 59 70 78 87 91 94 97 97 96 94 93
100 100 83 87 99 98 98 99 99 100 100 97 94 99 99 90 81 86 90 84 81 75 72 67 63 59 56 52 54 62 62 56 56 57 61 67 83 83 92 96 97 97 97 93
81 99 99 80 86 79 93 100 100 98 98 99 99 98 100 96 92 88 85 82 82 91 86 82 78 70 62 58 57 59 64 61 68 62 63 67 69 85 88 91 94 95 95 98
79 95 98 90 92 76 100 100 100 100 99 99 97 99 96 96 94 93 94 92 88 86 90 90 83 77 69 63 56 53 56 57 62 67 74 74 75 77 80 93 93 93 95 93
75 99 98 97 92 70 84 99 98 98 99 98 99 99 100 99 96 88 87 86 88 86 77 73 67 56 48 45 46 46 50 48 55 60 70 76 79 81 81 90 91 93 94 96
80 95 81 66 52 52 56 65 84 86 89 96 99 98 92 94 90 84 78 73 66 58 54 54 46 46 46 43 38 37 46 49 59 57 62 68 72 76 81 84 94 96 94 99
60 84 66 66 41 42 61 48 37 48 67 71 73 77 77 84 81 76 72 72 56 46 38 36 34 33 36 32 36 40 42 48 52 52 58 64 69 71 74 80 86 93 94 94
56 74 80 73 45 53 73 70 48 37 43 58 70 52 77 86 79 74 72 60 44 36 30 32 30 28 29 34 33 40 44 42 46 52 51 55 66 65 71 76 88 91 92 94
81 67 78 86 70 85 46 31 27 35 36 37 48 48 52 55 57 58 56 48 36 28 32 34 34 34 35 37 39 44 44 43 49 52 52 54 58 61 62 73 77 88 92 94
39 78 87 90 80 56 41 42 46 48 48 36 40 38 38 43 43 53 46 43 43 39 37 36 38 42 42 44 43 41 40 45 48 51 53 52 56 57 63 74 84 92 95 95
54 66 86 87 84 78 95 59 34 37 80 42 41 45 44 48 78 68 44 45 48 40 35 34 34 34 35 36 39 42 47 48 47 46 52 53 54 62 65 75 87 94 95 96
77 92 88 94 92 75 72 49 39 62 92 56 49 52 49 56 54 47 44 49 47 42 40 41 40 42 42 41 43 46 50 51 50 53 54 56 57 63 70 79 96 100 100 100
79 86 95 95 96 93 68 56 82 89 74 48 48 52 53 52 48 51 49 50 46 48 48 45 47 47 48 47 48 50 52 51 51 51 53 58 62 65 72 97 100 100 100 100
92 91 92 87 96 90 86 68 51 53 56 51 50 49 56 60 58 55 54 52 56 55 57 55 54 59 61 63 58 63 64 59 59 58 64 72 71 77 96 100 100 100 100 100
79 90 91 87 92 94 96 69 62 47 50 47 46 52 57 62 61 62 63 61 62 60 60 58 67 69 67 64 63 68 66 64 66 68 69 73 86 97 99 100 99 99 99 100
77 68 76 92 95 90 76 65 52 49 50 51 50 54 55 56 60 63 65 64 66 63 59 59 66 71 76 72 73 72 71 70 74 77 78 77 75 92 98 98 98 99 99 98
47 42 77 90 63 58 52 49 47 50 50 51 53 55 58 65 70 70 74 71 70 76 74 75 81 86 80 76 78 74 73 77 81 76 74 81 85 84 97 97 99 99 99 99
Wind_Speed
25 21 24 38 33 29 28 27 29 37 13 19 26 39 29 25 28 28 24 23 20 12 10 10 10 10 13 15 13 23 22 21 17 14 14 12 12 12 10 11 18 18 16 15
19 27 38 32 25 31 29 31 38 35 17 23 22 35 27 25 28 22 23 19 11 12 10 10 11 9 12 16 12 24 23 25 20 16 15 14 15 11 12 9 14 16 17 13
30 34 24 31 33 30 35 34 41 31 14 22 22 38 32 27 27 21 19 20 21 19 15 16 14 13 14 17 15 20 23 24 21 21 14 11 11 9 9 9 10 12 18 16
26 29 21 23 27 33 33 36 36 30 21 20 20 23 22 18 26 27 26 25 25 24 21 15 13 10 16 11 8 10 24 23 20 20 16 21 17 15 12 13 13 13 18 19
36 25 26 27 32 29 30 26 28 31 26 23 19 14 31 21 24 21 17 19 19 20 26 21 21 9 5 10 9 8 9 12 18 19 18 16 18 14 12 13 16 16 13 16
38 26 24 29 16 12 11 13 25 32 25 24 27 21 26 16 6 8 5 10 12 14 16 18 17 20 14 12 10 10 9 6 5 6 12 18 14 11 10 13 13 12 12 11
34 38 35 25 26 20 11 10 5 4 7 4 17 23 27 8 12 6 5 15 13 17 18 17 19 17 16 16 15 13 13 13 9 4 2 10 15 17 15 16 14 14 11 12
4 24 20 20 33 20 19 17 10 4 3 3 16 10 9 30 32 12 21 18 17 20 19 18 18 17 17 17 17 17 16 16 16 13 10 6 9 10 9 13 12 13 14 15
10 5 3 10 8 9 29 21 15 13 15 5 3 1 8 8 19 18 17 20 18 17 17 17 16 16 15 15 15 15 15 15 17 16 14 13 11 7 3 11 7 9 12 12
2 7 2 5 5 11 6 9 10 8 3 5 8 9 4 15 16 15 18 18 17 17 17 16 15 15 12 11 10 12 11 11 11 12 12 9 10 8 9 4 3 7 10 11
3 4 7 4 4 2 6 5 6 4 1 6 6 3 6 11 13 16 12 14 13 14 14 12 12 11 10 10 12 11 10 9 10 9 8 9 9 8 7 6 4 6 6 14
5 4 5 3 8 3 2 2 4 3 3 2 4 3 5 10 12 13 9 10 10 11 11 9 9 9 10 10 10 8 9 11 9 7 7 8 6 5 7 5 4 3 6 10
4 3 6 4 1 3 4 4 5 4 2 2 3 1 1 6 6 6 7 6 6 7 6 8 9 8 9 8 6 6 6 6 7 9 9 8 8 7 6 4 3 5 8 10
5 4 7 5 3 7 7 6 4 3 2 3 3 3 3 2 5 3 6 7 5 5 4 5 4 3 5 3 1 4 1 3 3 4 6 6 7 7 6 6 5 4 0 2
2 1 3 9 10 10 9 5 3 1 3 2 1 5 5 7 9 8 7 7 8 7 6 5 4 2 4 4 1 4 3 6 2 2 1 3 5 5 5 7 4 3 5 4
2 2 4 4 10 9 6 10 4 4 2 5 9 2 11 12 4 7 8 7 7 7 4 7 2 3 3 4 2 2 1 3 3 5 5 4 4 4 3 6 5 2 2 3
4 2 5 4 11 10 6 3 2 3 7 1 4 4 9 10 11 5 11 3 7 6 7 6 3 1 2 3 3 4 3 3 4 6 5 6 6 5 6 4 3 4 4 1
2 2 3 4 4 4 5 1 6 16 20 13 14 12 10 11 12 12 10 8 6 6 6 4 1 3 6 5 5 5 6 6 6 6 6 6 6 5 5 5 6 4 3 4
7 4 2 2 3 8 7 7 7 12 16 15 16 16 14 15 14 10 10 8 6 5 4 3 5 6 6 6 7 6 6 6 6 7 8 7 6 7 6 6 6 4 2 3
7 6 5 3 2 4 4 15 15 5 7 10 14 15 13 12 7 4 7 7 9 10 8 8 8 6 8 8 7 7 7 7 8 8 9 9 8 8 7 7 6 4 4 4
3 2 4 2 2 6 7 8 13 4 1 4 11 9 10 6 3 3 7 7 7 7 9 11 9 7 6 7 8 9 8 8 9 8 8 8 8 8 7 7 5 5 3 1
3 2 2 1 3 3 11 7 5 3 2 6 8 7 6 5 5 5 6 7 7 7 9 10 9 8 7 9 9 12 12 11 12 12 9 8 8 7 6 7 4 4 5 4
5 3 2 3 2 4 5 5 4 5 7 7 8 8 8 7 5 5 5 5 5 6 7 9 11 10 9 7 10 13 14 13 14 14 12 8 9 7 6 8 7 3 5 4
3 6 4 1 5 9 11 7 14 6 8 9 8 9 8 7 8 7 7 7 4 2 5 8 9 11 12 9 11 12 15 15 16 17 15 12 6 7 8 5 6 5 6 5
4 2 2 4 5 4 7 3 2 9 9 11 9 7 6 6 7 9 9 10 9 9 9 10 12 13 13 14 15 14 15 14 15 16 16 15 12 8 9 10 8 7 6 7
2 2 3 3 3 3 1 6 7 9 7 6 4 5 9 10 7 7 6 6 7 9 9 10 10 11 14 16 17 19 18 15 16 17 15 13 11 9 8 8 4 4 6 11
Wind_Direction
221 224 231 224 225 231 240 242 250 250 211 220 233 253 251 249 251 255 247 244 238 211 228 221 211 200 183 184 154 174 173 174 178 180 181 175 180 183 172 178 183 187 187 177
234 230 225 236 227 226 226 232 241 260 226 208 231 252 252 242 241 244 245 250 243 239 219 225 232 196 174 186 175 172 176 173 179 181 188 185 182 187 190 168 178 181 183 166
239 243 228 233 234 232 223 226 238 245 243 239 254 267 258 252 252 249 249 253 256 246 240 232 228 206 180 181 184 174 176 177 181 179 177 188 184 189 185 186 175 177 180 179
244 243 239 252 266 235 225 223 236 239 236 238 212 263 249 250 244 240 245 245 247 244 236 225 215 197 185 181 166 149 177 177 182 179 180 176 183 184 194 192 189 184 184 185
243 242 228 236 234 231 249 230 234 243 229 242 220 238 266 229 236 234 222 231 237 242 230 228 223 152 75 81 83 98 92 169 183 183 181 184 184 193 181 188 190 194 190 186
255 251 239 239 245 216 266 293 307 234 222 227 217 215 259 236 231 237 142 73 66 61 79 74 80 87 71 59 54 52 76 85 107 158 206 200 199 188 176 168 179 185 192 190
241 244 246 252 254 253 222 219 252 234 198 240 213 215 237 217 222 206 97 95 81 66 61 69 71 73 66 55 48 44 35 44 37 108 181 219 190 202 192 176 179 183 182 189
251 247 252 243 228 245 225 214 227 262 208 187 186 210 224 237 241 110 104 91 76 74 70 66 66 62 62 59 48 40 35 30 30 37 40 348 218 197 188 182 191 183 189 196
355 347 310 8 313 285 228 234 209 239 231 262 233 203 279 70 77 89 74 78 71 67 67 68 61 63 63 54 48 50 39 34 25 26 32 39 38 40 167 164 182 197 199 197
327 290 268 261 347 34 54 307 196 212 243 199 195 209 132 79 75 60 63 61 54 52 55 54 48 46 49 55 50 42 42 49 33 30 25 33 32 38 61 59 243 208 204 203
232 237 288 206 38 300 28 344 30 304 286 233 210 119 341 86 79 68 43 55 49 44 34 32 36 41 42 45 42 33 20 33 43 33 20 25 32 24 33 70 28 39 286 197
12 296 280 11 94 71 193 224 164 147 8 110 325 32 334 73 74 77 54 47 40 54 32 15 23 22 19 25 33 22 27 18 12 18 22 28 36 9 43 54 29 293 23 324
329 320 318 359 35 46 21 33 43 22 339 85 106 80 63 83 73 70 86 46 33 26 32 14 10 27 21 349 16 8 26 25 7 4 3 5 11 11 19 248 211 24 12 347
304 25 7 22 335 290 349 8 49 53 331 60 11 116 158 116 119 111 142 157 184 165 161 179 171 200 138 209 29 262 259 54 20 18 20 2 348 343 341 337 357 56 148 259
72 31 345 333 325 4 325 2 4 27 139 90 221 184 185 166 200 208 202 188 174 157 174 191 203 215 171 180 186 339 36 13 258 281 337 305 321 333 337 339 335 345 2 358
289 251 4 339 25 357 303 301 338 250 278 148 126 132 202 202 218 202 216 245 127 132 142 124 143 23 87 92 80 35 56 352 339 336 343 299 272 257 302 320 310 264 279 310
301 28 23 355 350 332 350 260 222 283 185 70 22 356 149 189 208 231 215 123 89 93 89 119 124 9 317 279 253 236 219 243 283 278 307 305 304 318 313 291 297 305 300 234
198 64 40 287 358 38 277 314 359 62 35 96 99 82 89 94 91 70 69 86 75 77 56 67 126 245 249 252 252 240 235 230 238 253 254 260 269 258 276 295 289 291 302 309
206 125 38 73 326 278 352 23 37 80 48 40 59 52 69 81 68 36 27 50 57 38 8 319 309 298 298 291 274 252 243 228 228 235 240 241 241 252 252 249 238 221 211 267
65 72 118 45 1 315 27 331 347 102 65 46 51 53 62 58 56 322 1 16 17 13 3 349 336 335 337 323 325 312 285 261 246 232 226 225 227 222 238 239 221 181 197 216
13 25 162 145 211 299 344 331 316 46 156 7 69 61 55 64 123 340 19 24 13 2 351 343 336 321 312 323 331 318 308 294 265 256 246 234 226 222 217 220 188 155 159 177
143 96 80 143 203 296 338 0 60 66 296 36 45 47 48 41 19 27 17 360 345 347 353 341 329 322 332 334 339 330 322 325 332 317 288 251 238 223 201 180 168 163 161 197
31 3 270 129 198 232 308 313 94 106 55 35 37 23 29 28 12 2 333 332 14 3 353 333 321 320 319 327 331 319 313 319 318 313 302 300 287 234 196 179 172 179 175 181
77 26 353 1 38 17 9 356 30 28 52 46 44 35 26 9 357 354 349 323 312 338 329 313 324 309 304 311 318 309 308 308 301 293 288 287 277 267 248 207 170 188 177 184
228 187 113 112 89 201 194 200 194 61 50 50 31 11 342 343 8 11 356 351 356 346 335 325 313 310 317 318 307 303 298 295 290 286 284 278 270 232 221 227 200 189 194 177
203 98 97 202 189 120 127 63 67 73 57 61 1 349 34 39 15 360 338 327 326 321 318 315 318 313 310 307 302 302 298 289 282 277 272 267 266 252 215 206 206 188 189 183